map of LICL home
LICL - Airport
Location
City:  Gela, Sicily, Italy
ICAO:LICL

Details
Type:Airport (Aerodrome, Airfield)
Latitude:3707'N (37.114)
Longitude:1413'E (14.214)
Elevation:82 ft (25 m)
Variation:3.08E (WMM2015 magnetic declination)
0.10 annual change
Runways:1
Longest:1312 ft (400 m)

Time
Time Zone:UTC+1 (DST+2)
Local Time:

Weather
METAR:LICL 241755Z 00000KT 9999 SCT040 13/08 Q1008 RMK BKN BKN080 QUK / QUL / VIS MAR 14 KM VIS MIN 9999

Related Locations
Nearby:
Farthest:CHT: 11710 mi / 18846 km
Waitangi [Tuuta], CIT, NZ

Find:

   beyond  
but within

Other Information
Maps:
NOTAMs:
Links:
Sources:

  
flag of Italy
flag of Sicily
  

Sectional Chart

Flight Planning
at skyvector.com

Satellite Image

Google Maps Satellite view

 

Copyright © 2004-2018 Karl L. Swartz. All rights reserved.
The Great Circle Mapper name and logo are trademarks of the Great Circle Mapper.
All other trademarks mentioned herein belong to their respective owners.
Please see credits for attibutions and further copyright information.

  Follow gcmap on Facebook Follow gcmap on Twitter Follow gcmap on Google+ GCmap on LinkedIn

hCard Microformat

Geo Microformat